DW2004 Weather Reports


Display with metric or nautical units.
time (UTC)temp
F
wind
direction
speed
MPH
gust
MPH
rain 1hr
in
rain 24hr
in
rain mn
in
humidity
%
barometer
mb
20260506173501 56 80 1.0 10.0 0.00 0.03 0.03 81 1014.5
20260506173006 56 39 0.0 9.0 0.00 0.03 0.03 80 1014.6
20260506172501 55 25 2.0 10.0 0.00 0.03 0.03 79 1014.7
20260506172001 55 19 2.0 11.0 0.00 0.03 0.03 80 1014.9
20260506171506 55 18 2.0 12.0 0.00 0.03 0.03 81 1015.0
20260506171001 55 37 3.0 12.0 0.00 0.03 0.03 82 1015.0
20260506170501 55 32 1.0 9.0 0.00 0.03 0.03 82 1015.4
20260506170005 55 29 1.0 9.0 0.00 0.03 0.03 81 1015.5
20260506165000 55 68 2.0 7.0 0.00 0.03 0.03 83 1015.5
20260506164000 55 78 1.0 4.0 0.00 0.03 0.03 84 1015.6
20260506163500 55 61 1.0 5.0 0.00 0.03 0.03 84 1015.8
20260506163004 55 78 1.0 9.0 0.01 0.03 0.03 85 1015.7
20260506162500 54 68 2.0 9.0 0.01 0.03 0.03 86 1015.2
20260506162000 54 5 3.0 10.0 0.01 0.03 0.03 85 1014.8
20260506161504 54 347 3.0 10.0 0.02 0.03 0.03 85 1015.1
20260506161000 54 360 2.0 9.0 0.03 0.03 0.03 86 1015.4
20260506160459 55 24 2.0 6.0 0.03 0.03 0.03 87 1015.3
20260506160006 55 9 1.0 5.0 0.03 0.03 0.03 87 1015.3
20260506155500 55 10 1.0 7.0 0.03 0.03 0.03 87 1014.9
20260506155000 54 32 1.0 7.0 0.03 0.03 0.03 87 1015.0
20260506154504 54 36 1.0 9.0 0.03 0.03 0.03 88 1014.4
20260506154000 54 351 1.0 4.0 0.03 0.03 0.03 88 1014.6
20260506153500 54 319 0.0 1.0 0.03 0.03 0.03 87 1015.8
20260506152501 54 319 0.0 5.0 0.02 0.02 0.02 85 1016.9
20260506151959 54 319 0.0 5.0 0.02 0.02 0.02 85 1017.0
20260506151504 54 329 0.0 1.0 0.01 0.01 0.01 85 1016.4
20260506150959 54 326 0.0 5.0 0.00 0.00 0.00 83 1016.6
20260506150501 54 327 0.0 5.0 0.00 0.00 0.00 82 1016.3
20260506150005 54 9 0.0 5.0 0.00 0.00 0.00 82 1016.3
20260506145459 54 322 0.0 5.0 0.00 0.00 0.00 82 1015.8
20260506145000 54 310 0.0 5.0 0.00 0.00 0.00 82 1015.6
20260506144503 54 67 0.0 10.0 0.00 0.00 0.00 82 1015.0
20260506144000 54 24 2.0 10.0 0.00 0.00 0.00 81 1014.5
20260506143459 54 24 1.0 6.0 0.00 0.00 0.00 81 1015.0
20260506143003 54 37 0.0 4.0 0.00 0.00 0.00 80 1015.8
20260506142459 54 346 0.0 9.0 0.00 0.00 0.00 79 1015.7
20260506141959 54 360 2.0 9.0 0.00 0.00 0.00 79 1015.7
20260506141503 54 5 1.0 9.0 0.00 0.00 0.00 79 1015.5
20260506140005 54 11 0.0 9.0 0.00 0.00 0.00 80 1015.3
20260506135459 54 360 2.0 10.0 0.00 0.00 0.00 79 1014.8
20260506135000 54 58 1.0 10.0 0.00 0.00 0.00 80 1014.7
20260506134504 54 5 2.0 10.0 0.00 0.00 0.00 80 1014.4
20260506134000 54 28 1.0 8.0 0.00 0.00 0.00 80 1014.4
20260506133500 54 61 1.0 6.0 0.00 0.00 0.00 81 1014.4
20260506133003 54 22 1.0 8.0 0.00 0.00 0.00 81 1014.4
20260506132459 54 11 1.0 8.0 0.00 0.00 0.00 80 1014.4
20260506131959 54 307 2.0 10.0 0.00 0.00 0.00 80 1014.4
20260506131503 54 360 1.0 10.0 0.00 0.00 0.00 80 1014.2
20260506131001 54 28 1.0 6.0 0.00 0.00 0.00 80 1014.1
20260506130459 54 314 2.0 6.0 0.00 0.00 0.00 80 1014.0
20260506130005 54 34 1.0 11.0 0.00 0.00 0.00 81 1014.1
20260506125459 53 46 1.0 8.0 0.00 0.00 0.00 81 1013.8
20260506124959 53 39 1.0 8.0 0.00 0.00 0.00 81 1014.0
20260506124503 53 355 1.0 9.0 0.00 0.00 0.00 80 1013.9
20260506123959 53 341 2.0 9.0 0.00 0.00 0.00 80 1014.0
20260506123459 53 41 2.0 9.0 0.00 0.00 0.00 80 1013.9
20260506123003 54 345 0.0 9.0 0.00 0.00 0.00 83 1013.8
20260506122500 54 322 1.0 9.0 0.00 0.00 0.00 80 1013.9
20260506122000 53 360 2.0 6.0 0.00 0.00 0.00 80 1013.7
20260506121503 54 11 2.0 12.0 0.00 0.00 0.00 79 1013.7
20260506121000 54 340 1.0 12.0 0.00 0.00 0.00 79 1013.8
20260506120005 54 314 1.0 11.0 0.00 0.00 0.00 79 1013.6
20260506115500 54 10 2.0 11.0 0.00 0.00 0.00 78 1013.5
20260506114959 54 336 1.0 10.0 0.00 0.00 0.00 78 1013.4
20260506113959 54 346 3.0 11.0 0.00 0.00 0.00 76 1013.3
20260506113500 55 329 3.0 11.0 0.00 0.00 0.00 75 1013.2
20260506113003 55 331 0.0 9.0 0.00 0.00 0.00 75 1012.8
20260506112000 55 339 2.0 10.0 0.00 0.00 0.00 74 1012.7
20260506111503 55 56 1.0 11.0 0.00 0.00 0.00 74 1012.7
20260506110500 56 44 3.0 12.0 0.00 0.00 0.00 74 1012.7
20260506110005 56 360 2.0 12.0 0.00 0.00 0.00 74 1012.6
20260506105459 56 355 2.0 9.0 0.00 0.00 0.00 74 1012.4
20260506104000 56 18 1.0 9.0 0.00 0.00 0.00 73 1012.4
20260506103459 56 345 1.0 10.0 0.00 0.00 0.00 73 1012.2
20260506103002 56 326 4.0 10.0 0.00 0.00 0.00 73 1012.2
20260506102459 56 50 1.0 9.0 0.00 0.00 0.00 73 1012.1
20260506101503 56 348 2.0 10.0 0.00 0.00 0.00 73 1011.9
20260506100959 57 348 2.0 9.0 0.00 0.00 0.00 73 1011.9
20260506100459 57 63 2.0 10.0 0.00 0.00 0.00 73 1011.8
20260506100005 57 72 3.0 10.0 0.00 0.00 0.00 72 1011.6
20260506095459 57 40 1.0 10.0 0.00 0.00 0.00 72 1011.6
20260506095000 57 38 2.0 8.0 0.00 0.00 0.00 72 1011.5
20260506094504 57 9 1.0 6.0 0.00 0.00 0.00 72 1011.4
20260506093959 57 350 2.0 6.0 0.00 0.00 0.00 72 1011.6
20260506093002 57 355 0.0 11.0 0.00 0.00 0.00 72 1011.3
20260506092459 57 41 1.0 10.0 0.00 0.00 0.00 72 1011.2
20260506091959 57 22 1.0 9.0 0.00 0.00 0.00 72 1011.2
20260506091502 57 57 1.0 9.0 0.00 0.00 0.00 72 1011.3
20260506090959 57 5 1.0 9.0 0.00 0.00 0.00 72 1011.2
20260506090459 57 18 2.0 8.0 0.00 0.00 0.00 73 1011.1
20260506085459 57 332 2.0 10.0 0.00 0.00 0.00 73 1011.0
20260506084958 58 5 2.0 10.0 0.00 0.00 0.00 73 1010.9
20260506083958 58 360 1.0 8.0 0.00 0.00 0.00 74 1010.9
20260506083457 58 309 1.0 8.0 0.00 0.00 0.00 74 1011.0
20260506083001 58 48 0.0 9.0 0.00 0.00 0.00 74 1010.9
20260506081957 58 21 2.0 6.0 0.00 0.00 0.00 74 1010.8
20260506081501 58 42 0.0 5.0 0.00 0.00 0.00 74 1010.8
20260506080957 58 65 1.0 5.0 0.00 0.00 0.00 74 1010.8
20260506080458 58 13 2.0 8.0 0.00 0.00 0.00 74 1010.9
20260506073001 58 51 0.0 4.0 0.00 0.00 0.00 75 1010.2
20260506072458 59 343 0.0 4.0 0.00 0.00 0.00 75 1010.2
20260506071958 59 59 1.0 5.0 0.00 0.00 0.00 77 1010.1
20260506071501 59 48 1.0 6.0 0.00 0.00 0.00 75 1010.2
20260506070957 59 302 1.0 6.0 0.00 0.00 0.00 75 1010.1
20260506062459 60 76 1.0 9.0 0.00 0.00 0.00 75 1010.4
20260506061957 60 64 1.0 9.0 0.00 0.00 0.00 75 1010.5
20260506061501 60 75 1.0 9.0 0.00 0.00 0.00 75 1010.4
20260506060958 60 329 3.0 9.0 0.00 0.00 0.00 75 1010.4
20260506060458 60 344 2.0 9.0 0.00 0.00 0.00 75 1010.3
20260506051004 61 348 1.0 12.0 0.00 0.00 0.00 77 1010.4
20260506044508 62 340 1.0 9.0 0.00 0.00 0.00 77 1010.4
20260506044004 62 321 3.0 8.0 0.00 0.00 0.00 76 1010.4
20260506043504 62 333 0.0 10.0 0.00 0.00 0.00 77 1010.4
20260506043007 62 331 2.0 10.0 0.00 0.00 0.00 76 1010.5
20260506042504 62 342 4.0 10.0 0.00 0.00 0.00 76 1010.2
20260506041508 62 21 2.0 10.0 0.00 0.00 0.00 76 1010.3
20260506041004 63 318 2.0 13.0 0.00 0.00 0.00 76 1010.2
20260506040503 63 329 1.0 13.0 0.00 0.00 0.00 76 1010.1
20260506040008 63 348 3.0 12.0 0.00 0.00 0.00 76 1010.1
20260506035002 63 13 4.0 12.0 0.00 0.00 0.00 76 1009.8
20260506034506 64 31 2.0 12.0 0.00 0.00 0.00 76 1009.8
20260506034003 64 360 2.0 9.0 0.00 0.00 0.00 75 1009.6
20260506032502 64 22 2.0 11.0 0.00 0.00 0.00 76 1009.5
20260506032002 64 71 0.0 10.0 0.00 0.00 0.00 76 1009.4
20260506031506 64 67 1.0 11.0 0.00 0.00 0.00 75 1009.4
20260506031002 65 344 3.0 11.0 0.00 0.00 0.00 74 1009.5
20260506030502 65 348 4.0 14.0 0.00 0.00 0.00 74 1009.5
20260506030008 65 344 4.0 15.0 0.00 0.00 0.00 75 1009.3
20260506025502 66 329 3.0 15.0 0.00 0.00 0.00 75 1009.1
20260506025002 66 32 4.0 11.0 0.00 0.00 0.00 75 1009.1
20260506024507 66 11 4.0 11.0 0.00 0.00 0.00 74 1008.9
20260506024003 67 11 4.0 11.0 0.00 0.00 0.00 74 1008.8
20260506023503 67 310 2.0 11.0 0.00 0.00 0.00 74 1008.6
20260506023006 67 355 4.0 11.0 0.00 0.00 0.00 74 1008.5
20260506022002 68 333 1.0 9.0 0.00 0.00 0.00 74 1007.9
20260506020502 68 345 1.0 8.0 0.00 0.00 0.00 73 1007.7
20260506020008 68 319 1.0 8.0 0.00 0.00 0.00 73 1007.5
20260506015503 69 21 1.0 8.0 0.00 0.00 0.00 73 1007.5
20260506015003 69 329 1.0 6.0 0.00 0.00 0.00 72 1007.5
20260506014507 69 314 1.0 8.0 0.00 0.00 0.00 72 1007.2
20260506014003 69 306 1.0 8.0 0.00 0.00 0.00 72 1007.2
20260506013503 69 320 0.0 5.0 0.00 0.00 0.00 71 1007.2
20260506012502 69 340 1.0 5.0 0.00 0.00 0.00 71 1007.0
20260506012003 69 335 1.0 6.0 0.00 0.00 0.00 70 1007.0
20260506011506 69 331 0.0 8.0 0.00 0.00 0.00 70 1007.1
20260506011002 70 342 1.0 8.0 0.00 0.00 0.00 70 1006.8
20260506010503 70 14 0.0 10.0 0.00 0.00 0.00 70 1006.7
20260506005502 70 342 2.0 14.0 0.00 0.00 0.00 69 1006.5
20260506005003 71 338 2.0 11.0 0.00 0.00 0.00 69 1006.9
20260506004506 71 321 3.0 10.0 0.00 0.00 0.00 69 1006.1
20260506004003 71 340 1.0 12.0 0.00 0.00 0.00 69 1005.6
20260506003504 72 13 6.0 14.0 0.00 0.00 0.00 68 1005.9
20260506003006 72 321 6.0 17.0 0.00 0.00 0.00 68 1005.9
20260506002502 72 336 6.0 17.0 0.00 0.00 0.00 67 1005.7
20260506002003 73 340 3.0 13.0 0.00 0.00 0.00 67 1005.6
20260506001505 73 360 2.0 14.0 0.00 0.00 0.00 67 1005.7
20260506001002 73 329 5.0 15.0 0.00 0.00 0.00 66 1005.9
20260506000503 74 331 6.0 15.0 0.00 0.00 0.00 66 1005.8
20260506000008 74 320 3.0 12.0 0.00 0.00 0.00 66 1005.5
20260505235504 74 355 2.0 12.0 0.00 0.00 0.00 66 1005.8
20260505235002 74 355 4.0 13.0 0.00 0.00 0.00 65 1005.8
20260505234002 75 349 3.0 17.0 0.00 0.00 0.00 65 1005.6
20260505233502 76 355 4.0 17.0 0.00 0.00 0.00 65 1005.5
20260505233006 76 355 6.0 14.0 0.00 0.00 0.00 64 1005.4
20260505232503 77 19 5.0 14.0 0.00 0.00 0.00 63 1005.2
20260505232002 78 9 7.0 14.0 0.00 0.00 0.00 62 1005.0
20260505231002 79 346 5.0 16.0 0.00 0.00 0.00 62 1005.1
20260505230008 80 279 6.0 15.0 0.00 0.00 0.00 62 1005.0
20260505225505 81 10 4.0 12.0 0.00 0.00 0.00 62 1005.0
20260505224505 82 330 3.0 11.0 0.00 0.00 0.00 60 1004.6
20260505224001 82 321 4.0 11.0 0.00 0.00 0.00 59 1004.5
20260505223009 83 328 2.0 11.0 0.00 0.00 0.00 57 1004.6
20260505222502 84 288 3.0 11.0 0.00 0.00 0.00 56 1004.4
20260505222001 85 321 2.0 11.0 0.00 0.00 0.00 55 1004.1
20260505221507 84 336 1.0 11.0 0.00 0.00 0.00 56 1004.1
20260505221000 85 326 4.0 11.0 0.00 0.00 0.00 54 1004.1
20260505220501 86 337 4.0 11.0 0.00 0.00 0.00 52 1004.1
20260505215502 86 306 0.0 11.0 0.00 0.00 0.00 53 1003.9
20260505214516 86 290 2.0 12.0 0.00 0.00 0.00 48 1004.0
20260505214001 86 5 5.0 13.0 0.00 0.00 0.00 47 1004.2
20260505213502 87 321 6.0 13.0 0.00 0.00 0.00 45 1004.1
20260505213008 87 341 4.0 11.0 0.00 0.00 0.00 46 1004.1
20260505212501 87 344 3.0 8.0 0.00 0.00 0.00 48 1004.0
20260505212001 88 349 3.0 10.0 0.00 0.00 0.00 47 1003.9
20260505211505 89 5 2.0 9.0 0.00 0.00 0.00 56 1003.9
20260505211002 89 268 1.0 11.0 0.00 0.00 0.00 54 1004.1
20260505210501 89 240 2.0 11.0 0.00 0.00 0.00 55 1004.1
20260505210006 88 223 0.0 8.0 0.00 0.00 0.00 55 1004.1
20260505205501 89 210 2.0 10.0 0.00 0.00 0.00 53 1004.3
20260505205015 90 227 4.0 11.0 0.00 0.00 0.00 53 1004.3
20260505204504 90 251 3.0 12.0 0.00 0.00 0.00 54 1004.2
20260505204003 89 246 4.0 12.0 0.00 0.00 0.00 54 1004.2
20260505203502 89 257 1.0 11.0 0.00 0.00 0.00 54 1004.3
20260505203005 89 209 2.0 12.0 0.00 0.00 0.00 56 1004.3
20260505202501 88 208 6.0 12.0 0.00 0.00 0.00 55 1004.2
20260505201505 89 261 5.0 14.0 0.00 0.00 0.00 54 1004.6
20260505201001 88 210 3.0 10.0 0.00 0.00 0.00 55 1004.7
20260505200007 88 249 1.0 12.0 0.00 0.00 0.00 60 1004.6
20260505195501 87 207 3.0 15.0 0.00 0.00 0.00 58 1004.5
20260505194505 88 241 4.0 10.0 0.00 0.00 0.00 58 1004.7
20260505194005 87 279 1.0 10.0 0.00 0.00 0.00 60 1004.7
20260505193502 87 232 2.0 15.0 0.00 0.00 0.00 60 1004.8
20260505192501 87 254 2.0 14.0 0.00 0.00 0.00 59 1004.7
20260505192001 86 265 7.0 14.0 0.00 0.00 0.00 59 1004.6
20260505191505 86 203 7.0 17.0 0.00 0.00 0.00 59 1004.6
20260505190501 86 263 4.0 12.0 0.00 0.00 0.00 62 1004.6
20260505190011 85 207 2.0 10.0 0.00 0.00 0.00 65 1004.7
20260505185501 85 180 2.0 9.0 0.00 0.00 0.00 66 1004.6
20260505185001 84 159 4.0 12.0 0.00 0.00 0.00 65 1004.6
20260505184505 84 181 3.0 12.0 0.00 0.00 0.00 64 1004.6
20260505184001 84 223 2.0 10.0 0.00 0.00 0.00 65 1004.7
20260505183502 84 265 3.0 14.0 0.00 0.00 0.00 65 1004.8
20260505182501 84 190 6.0 15.0 0.00 0.00 0.00 65 1004.7
20260505181505 84 224 5.0 15.0 0.00 0.00 0.00 64 1004.7
20260505181001 84 246 1.0 10.0 0.00 0.00 0.00 66 1004.8
20260505180501 84 145 3.0 14.0 0.00 0.00 0.00 66 1004.8
20260505180006 83 242 6.0 14.0 0.00 0.00 0.00 64 1004.8
20260505175500 83 216 4.0 16.0 0.00 0.00 0.00 66 1004.7
20260505174504 82 194 5.0 20.0 0.00 0.00 0.00 67 1004.8
20260505174001 82 217 4.0 13.0 0.00 0.00 0.00 68 1004.8